Location: Fort Wayne
(41.1310°N, 85.1290°W)
Time: 05:41:42
(UTC-04:00)

COSMOS 2406 - Visible Passes

Search period start: 25 August 2016 00:00
Search period end: 04 September 2016 00:00
Orbit: 843 x 865 km, 71.0° (Epoch: 23 August)

Date Brightness Start Highest point End Pass type
(mag) Time Alt. Az. Time Alt. Az. Time Alt. Az.
25 Aug 3.9 05:29:54 10° S 05:35:30 55° ESE 05:41:07 10° NNE visible
26 Aug 3.8 05:19:14 13° S 05:24:15 56° ESE 05:29:52 10° NNE visible
27 Aug 3.8 05:08:57 19° S 05:13:00 57° ESE 05:18:39 10° NNE visible
28 Aug 3.7 04:58:36 26° S 05:01:45 58° ESE 05:07:24 10° NNE visible
29 Aug 3.6 04:48:10 34° S 04:50:30 59° ESE 04:56:10 10° NNE visible
29 Aug 4.6 06:30:46 10° WSW 06:35:13 23° NW 06:39:43 10° N visible
30 Aug 3.6 04:37:42 44° SSE 04:39:16 60° ESE 04:44:56 10° NNE visible
30 Aug 4.6 06:19:48 11° W 06:24:00 22° NW 06:28:27 10° N visible
31 Aug 3.5 04:27:10 55° SSE 04:28:01 61° ESE 04:33:42 10° NNE visible
31 Aug 4.6 06:09:16 13° W 06:12:46 22° NW 06:17:11 10° N visible
01 Sep 3.4 04:16:34 62° ESE 04:16:46 62° ESE 04:22:27 10° NNE visible
01 Sep 4.7 05:58:41 15° W 06:01:32 22° NW 06:05:55 10° N visible
02 Sep 3.5 04:05:56 61° E 04:05:56 61° E 04:11:13 10° NNE visible
02 Sep 4.7 05:48:02 17° W 05:50:19 21° NW 05:54:39 10° N visible
03 Sep 3.8 03:55:16 55° ENE 03:55:16 55° ENE 03:59:59 10° NNE visible
03 Sep 4.7 05:37:21 19° WNW 05:39:05 21° NW 05:43:23 10° N visible
